Theta_e
312 312 312 310 309 309 308 301 306 311 306 303 297 299 299 299 302 304 305 302 302 302 304 303 304 304 305 309 310 306 310 308 305 307 311 309 309 308 308 303 302 303 304 305
312 312 312 310 309 309 305 303 304 316 308 298 298 299 300 301 305 305 303 301 303 304 304 304 305 305 309 310 310 308 308 305 302 303 307 307 307 308 309 307 307 304 302 306
313 312 311 311 309 309 307 307 307 310 306 303 302 303 303 303 306 305 306 304 304 303 303 305 304 306 309 313 313 321 313 305 306 302 305 307 306 307 308 309 305 306 306 308
313 313 312 310 310 309 307 307 304 304 302 303 306 306 305 304 304 307 305 302 303 304 302 302 303 305 310 312 316 310 310 306 306 306 305 306 306 307 307 307 309 305 308 308
314 313 312 311 310 308 305 305 303 306 304 303 305 302 305 303 305 305 305 303 305 303 303 305 305 307 310 310 312 311 308 308 307 306 307 306 305 307 307 308 308 308 309 311
314 314 313 312 310 307 302 302 305 305 300 302 303 304 305 305 305 307 308 306 306 306 307 309 309 311 313 313 313 311 310 308 306 301 305 305 302 308 310 311 314 312 309 316
314 314 313 312 310 308 304 302 302 303 300 301 303 304 303 304 305 304 307 308 307 310 312 311 312 311 311 312 310 312 310 310 307 303 304 296 307 318 316 314 316 318 317 319
313 314 314 314 312 309 304 304 303 303 298 299 300 301 302 305 305 303 305 308 310 310 311 310 308 308 308 308 307 309 308 309 304 301 300 304 309 315 315 314 313 320 320 321
312 312 313 314 312 309 307 304 305 304 301 298 300 302 302 302 303 305 306 310 311 310 310 309 304 301 305 303 304 306 306 308 306 300 298 295 306 316 320 318 309 320 319 319
310 311 312 313 313 310 308 305 306 305 302 306 303 301 301 304 303 303 304 306 308 309 308 305 304 303 305 302 302 303 304 304 302 303 300 303 310 317 319 307 309 321 320 319
311 311 311 311 312 312 309 306 307 305 302 303 306 306 304 304 304 302 305 305 306 310 305 305 303 303 304 303 305 305 304 303 302 301 299 298 314 315 312 318 323 322 321 321
311 311 312 311 312 312 309 304 306 307 301 301 306 309 311 309 308 307 305 304 304 311 309 307 304 303 304 304 299 307 304 308 310 308 309 313 315 315 319 322 322 323 324 323
310 311 311 311 311 311 310 305 306 304 301 301 302 305 311 310 309 312 302 306 307 308 311 310 307 305 306 302 302 306 309 313 311 309 311 312 314 317 319 321 320 321 321 319
310 310 310 311 311 311 310 305 305 304 301 298 304 312 312 315 314 311 309 306 308 309 310 308 307 304 305 305 305 305 309 313 312 309 311 312 314 316 318 318 319 319 322 322
309 310 310 310 310 310 309 307 306 306 303 302 305 310 312 314 313 312 310 308 306 307 307 307 306 307 306 308 307 306 310 312 309 309 315 315 315 317 319 319 319 321 322 324
309 309 310 310 310 310 304 304 305 306 306 301 299 310 310 313 312 311 310 310 307 308 308 308 309 308 309 305 304 312 311 313 316 314 316 316 318 319 321 320 322 324 325 324
309 309 309 309 309 308 303 304 308 307 308 304 301 301 310 312 310 310 309 309 310 310 310 307 309 309 309 307 301 310 314 315 316 315 317 315 317 317 321 322 323 323 325 326
310 309 309 308 309 307 307 312 307 308 306 306 300 301 308 312 308 308 310 308 310 310 311 310 309 308 308 303 310 312 314 315 315 315 317 319 320 319 321 323 325 322 321 321
309 309 309 308 306 308 308 312 311 309 306 303 304 301 304 313 310 312 311 311 306 310 308 308 309 306 304 309 312 313 314 315 315 316 315 317 317 318 320 322 322 320 319 319
308 308 306 307 307 311 313 308 305 303 307 307 302 305 301 305 306 310 310 310 308 304 308 309 305 306 312 313 312 313 316 317 317 314 314 315 315 317 319 320 321 321 319 320
306 302 301 305 309 308 307 303 302 304 302 305 305 304 302 309 304 305 310 308 308 303 305 305 304 304 310 313 315 315 316 317 317 318 319 319 318 319 319 319 319 319 320 320
304 303 305 305 305 303 300 301 303 302 303 307 305 307 307 310 311 309 309 308 307 301 309 306 303 310 313 312 312 313 317 316 315 316 316 316 316 317 318 319 319 320 320 320
307 302 301 302 302 293 295 295 299 301 306 309 310 309 312 313 311 308 308 303 303 309 304 302 308 313 312 314 314 315 316 316 316 315 316 317 317 317 317 318 320 320 319 320
300 299 291 297 297 299 300 301 303 307 310 312 310 310 311 313 307 309 303 306 306 300 299 301 309 312 312 315 316 317 315 315 315 315 316 317 317 317 318 319 320 320 319 320
299 301 292 297 303 303 306 306 307 310 311 309 308 308 309 308 305 307 305 301 299 301 302 307 312 313 315 316 316 314 314 315 316 317 317 317 317 317 318 318 319 319 319 318
301 300 297 302 301 303 302 303 302 310 310 310 311 305 302 302 304 302 300 299 298 304 310 313 315 316 317 315 315 316 317 317 316 316 316 316 317 316 317 317 318 318 317 317
299 299 303 302 301 301 302 304 305 312 309 305 306 299 299 305 301 300 305 302 307 310 313 316 317 316 314 315 316 317 315 315 314 314 314 313 314 314 315 314 316 318 318 320
Wind_Speed
20 20 21 25 25 28 5 3 2 3 3 2 1 4 5 1 3 3 2 2 3 3 1 4 6 8 4 2 9 11 7 5 12 17 4 2 3 4 5 8 7 1 3 4
20 20 21 23 23 21 4 3 2 1 3 3 3 2 3 3 2 2 1 3 4 1 2 3 5 6 4 4 8 9 11 5 6 5 6 4 7 7 6 4 3 8 6 3
19 21 24 22 25 21 1 2 1 1 2 1 1 3 2 2 3 4 4 4 2 2 3 3 1 4 3 2 2 5 8 5 5 8 2 1 4 9 9 8 6 7 9 4
19 18 21 23 25 20 2 2 2 4 2 3 2 2 1 2 3 4 3 3 9 6 3 3 4 3 1 2 3 4 3 4 3 3 3 3 3 5 8 10 9 10 9 10
18 18 19 21 24 19 0 3 3 2 1 2 2 2 5 4 2 3 4 8 1 6 5 6 7 7 4 3 4 3 1 3 2 3 0 1 6 9 10 12 6 9 5 7
17 17 17 17 18 13 4 2 1 3 1 1 2 3 2 3 1 4 10 6 7 8 11 11 12 5 4 2 4 5 2 5 3 7 2 4 10 10 10 5 4 6 10 4
18 17 15 15 14 12 3 2 3 2 1 3 3 2 2 4 4 5 6 6 5 1 5 2 7 5 4 4 4 2 6 4 2 5 2 12 3 6 8 9 4 7 4 5
20 19 17 13 11 10 4 1 3 2 3 3 7 5 5 7 4 5 5 4 3 7 3 2 4 2 2 0 7 4 4 4 4 5 9 8 7 5 7 10 9 7 7 8
18 18 18 16 11 10 5 2 2 2 3 2 4 4 2 3 3 3 4 2 6 1 1 2 4 5 4 6 6 4 5 5 5 4 8 13 9 9 5 2 10 13 9 9
18 18 17 16 13 10 4 3 3 2 3 3 4 5 3 1 1 4 3 6 4 3 2 2 3 4 1 5 4 4 3 2 9 10 9 9 4 8 6 10 5 16 12 9
18 17 17 15 13 11 5 4 3 3 3 8 8 5 6 3 2 3 4 4 3 0 3 4 4 4 4 3 2 4 7 5 5 3 6 13 3 8 10 3 11 13 10 7
19 17 16 15 13 10 3 2 0 1 4 7 3 8 13 14 10 2 1 4 3 1 1 1 2 3 3 3 5 2 5 5 2 6 1 4 5 7 4 6 10 8 8 6
19 18 17 16 13 9 3 3 2 2 4 7 4 5 4 12 20 12 4 2 2 1 3 1 1 3 3 5 5 4 4 4 3 5 5 1 2 3 3 5 6 5 4 1
19 19 18 16 15 9 5 3 2 2 3 4 4 3 4 2 7 18 19 2 2 3 1 1 1 3 2 1 2 4 1 8 7 2 3 2 5 6 8 5 4 3 3 2
21 21 20 18 15 11 6 5 5 6 4 4 7 12 2 5 7 10 16 14 4 2 2 2 2 1 3 1 2 4 6 6 6 6 12 8 12 11 8 7 4 2 4 4
22 22 20 18 13 7 1 2 4 7 5 3 5 4 4 2 4 7 11 9 5 3 2 2 2 1 3 4 3 5 7 6 6 2 8 5 9 10 8 6 5 4 4 3
23 23 21 17 11 5 3 3 2 9 4 3 5 5 1 3 3 3 4 7 3 3 2 4 3 3 4 3 12 7 5 8 8 4 10 5 9 7 9 5 5 6 5 5
23 21 17 6 8 2 3 1 9 7 2 2 3 4 4 4 0 2 1 4 3 4 2 1 3 3 3 6 6 11 4 4 5 12 5 5 8 4 7 5 5 4 2 3
23 15 5 2 2 1 3 7 12 2 3 3 2 3 2 4 2 0 2 2 4 2 4 3 4 4 6 8 8 8 10 10 11 10 2 8 8 7 6 5 5 4 2 1
15 1 2 2 2 8 4 4 3 3 3 3 4 1 3 3 2 2 2 1 1 3 2 3 5 5 10 9 7 5 7 9 13 10 6 5 5 6 7 8 6 5 2 1
5 5 3 5 8 3 3 3 3 3 3 4 4 4 3 2 3 2 1 0 1 3 3 3 3 4 4 4 6 5 9 8 9 1 2 5 2 6 7 7 6 5 3 2
5 5 5 3 3 1 3 3 2 4 3 4 3 2 4 1 2 3 1 2 1 3 1 3 3 3 3 3 2 5 8 10 7 4 3 1 3 4 4 5 5 4 2 2
1 2 3 2 1 1 4 4 3 2 2 3 3 2 1 2 3 2 2 4 2 1 3 3 2 4 3 4 5 8 7 7 5 4 4 3 2 0 4 5 4 4 3 3
2 2 4 4 4 4 3 2 2 1 2 1 1 1 1 2 2 1 3 1 2 3 3 2 3 5 5 5 5 5 5 4 4 4 4 4 3 3 1 3 3 3 4 3
3 2 4 5 3 3 1 2 1 0 1 1 1 2 2 1 2 1 2 3 3 3 2 3 5 3 5 5 4 3 4 2 3 3 4 4 4 4 4 2 2 3 3 4
3 4 4 3 3 2 1 1 2 4 1 1 2 1 1 1 2 2 5 3 3 1 2 1 2 3 4 4 4 4 3 3 3 3 4 4 4 4 4 3 2 3 3 4
4 3 3 4 4 4 3 1 2 2 1 1 2 2 3 2 2 3 3 2 2 3 1 3 3 2 5 3 3 3 3 3 3 3 3 4 4 4 4 4 2 2 2 2
Wind_Direction
348 344 345 346 347 339 18 321 184 31 284 139 341 184 199 240 274 218 267 253 262 255 207 167 189 203 237 121 153 166 188 219 245 253 278 291 236 240 215 240 194 255 307 249
352 346 348 349 349 352 321 354 311 57 287 193 192 220 241 246 256 267 272 268 236 124 298 235 191 198 141 156 165 165 170 210 234 219 165 152 214 192 180 144 181 185 216 228
348 351 352 351 350 347 255 297 186 106 77 19 180 163 197 252 218 256 240 276 247 223 254 208 290 209 153 52 117 65 148 151 232 249 27 9 220 187 175 209 208 187 224 206
346 349 353 353 351 348 276 4 55 347 169 182 252 252 196 245 261 232 229 217 231 202 232 197 214 215 210 95 105 72 238 219 208 269 238 239 262 222 192 211 233 229 259 217
346 350 355 355 354 345 332 8 347 355 295 292 231 194 203 203 255 236 243 233 250 210 235 223 208 186 221 190 138 141 148 169 193 263 335 328 276 260 250 234 228 246 241 218
346 352 356 357 1 355 17 11 249 279 72 204 199 229 205 193 14 240 252 293 305 264 257 268 255 265 302 320 182 142 144 143 165 262 3 314 264 264 236 223 218 225 196 216
348 352 354 358 8 20 335 329 292 309 283 260 227 308 356 263 265 273 295 289 197 58 316 197 132 92 81 127 79 25 137 126 173 269 230 254 350 324 248 250 234 223 247 180
346 350 351 354 2 9 349 312 298 354 296 309 282 262 254 286 264 240 249 277 4 318 210 183 125 91 108 181 36 355 358 156 167 239 248 296 259 202 190 202 222 194 189 156
343 345 349 352 1 6 353 291 264 296 312 229 303 309 304 289 298 261 245 330 323 278 117 156 169 179 169 173 154 60 129 65 254 168 250 263 287 222 202 173 247 183 174 151
342 341 342 346 356 357 349 289 229 272 273 264 201 237 283 253 267 275 300 344 339 336 129 158 185 196 277 201 202 165 162 194 238 255 257 261 213 146 148 206 262 158 159 145
336 337 337 340 344 347 350 298 223 289 270 272 217 233 235 237 249 283 13 245 164 253 166 199 165 208 176 191 183 200 229 219 229 212 244 252 148 132 208 65 131 137 142 152
330 331 330 331 335 337 11 282 311 328 246 276 287 255 254 242 242 311 332 338 281 1 71 210 139 171 177 184 228 134 207 240 225 229 287 350 295 295 124 142 134 146 163 189
328 327 328 328 326 325 307 274 273 243 273 275 273 234 240 225 234 229 241 226 301 160 347 88 51 235 169 189 217 173 194 170 203 196 178 17 89 108 122 135 128 167 212 307
325 323 323 321 320 305 279 235 162 257 293 287 284 347 282 258 197 205 215 1 121 62 291 274 257 262 208 247 3 251 106 165 164 217 233 195 228 212 185 181 162 132 88 72
322 319 317 317 314 298 269 237 216 230 287 304 296 310 277 272 190 192 199 213 259 340 303 245 246 151 209 162 257 235 191 168 195 218 187 196 187 184 185 188 181 160 136 122
319 317 312 309 301 292 268 245 185 201 201 275 302 343 272 335 161 172 183 190 196 229 234 234 232 227 256 238 242 261 214 222 236 298 190 190 162 169 181 190 168 131 139 104
316 315 313 306 278 178 221 347 46 171 190 257 291 305 288 310 128 139 139 173 176 216 203 221 237 192 215 262 254 275 246 236 230 221 150 135 177 186 184 177 135 125 103 85
314 313 318 335 119 92 241 44 168 170 244 246 289 283 290 8 199 159 162 147 184 189 255 177 219 147 224 248 243 246 236 205 204 184 216 233 167 155 169 156 149 148 117 40
316 324 132 170 205 156 76 15 155 200 296 292 252 283 342 354 52 142 141 229 190 101 233 216 183 178 219 224 232 233 210 197 184 173 156 154 170 183 179 188 185 205 207 357
319 169 256 177 81 319 149 200 175 190 199 226 255 247 267 316 343 104 212 176 205 217 161 144 222 243 257 261 257 283 220 199 162 156 143 156 200 203 206 212 226 232 210 301
3 358 331 324 315 201 194 211 226 151 231 197 237 228 282 138 285 339 4 61 184 246 129 244 212 246 244 327 280 256 206 177 172 37 196 201 232 224 218 221 224 215 201 268
301 293 296 281 278 195 238 222 174 219 245 180 211 218 215 263 273 271 131 278 201 246 88 240 242 248 322 292 125 122 142 145 131 95 100 20 283 265 243 238 225 197 159 267
241 202 241 226 207 185 221 208 202 235 197 194 200 188 240 197 229 249 266 235 234 263 221 240 292 351 29 69 83 85 78 89 86 77 61 42 359 185 227 228 181 160 198 255
266 272 292 222 203 234 213 264 290 21 309 352 30 146 354 19 237 267 249 111 250 241 242 245 20 352 119 89 64 75 68 47 67 53 25 359 341 320 249 228 186 201 237 269
269 252 243 234 277 275 294 320 217 49 125 161 163 85 308 50 280 335 310 239 242 236 308 1 348 126 128 112 95 87 96 86 61 24 2 344 334 315 295 258 246 234 245 268
249 233 260 234 273 250 16 360 24 4 351 311 246 100 31 273 297 236 216 250 239 50 354 347 165 137 83 75 84 101 112 68 50 28 1 344 344 329 319 301 263 225 244 268
240 246 251 269 277 267 287 295 337 342 271 270 68 320 240 125 229 239 215 253 1 351 241 191 200 115 70 26 98 104 101 106 83 49 29 5 341 322 302 277 202 239 273 273